Regional Weather Roundup
Issued by NWS

Home | Current Version | Previous Version | Text Only | Print | Product List | Glossary Off
Versions: 1 2 3 4 5 6 7 8 9 10 11 12 13 14 15 16 17 18 19 20 21 22 23 24 25 26 27 28 29 30 31 32 33 34 35 36 37 38 39 40 41 42 43 44 45 46 47 48 49 50

000
ASUS45 KSLC 251410
RWRUT

UTAH REGIONAL WEATHER ROUNDUP
NATIONAL WEATHER SERVICE SALT LAKE CITY UT
800 AM MDT TUE APR 25 2017

UTZ001>011-023>025-251500-

NORTHERN UTAH

CITY           SKY/WX    TMP DP  RH WIND       PRES   REMARKS
BRIGHAM CITY   CLOUDY    43  37  80 S3        29.77R
DUGWAY         MOSUNNY   39  37  92 N3        29.81R
HILL AFB       CLOUDY    39  36  87 NW6       29.76R WCI  35
LOGAN          LGT RAIN  41  36  82 SE6       29.76R
OGDEN          LGT RAIN  40  37  89 CALM      29.76R
SALT LAKE CITY LGT RAIN  42  39  89 W12       29.77R
TOOELE VALLEY  LGT RAIN  39  36  87 N7        29.81R WCI  34
WENDOVER       PTSUNNY   43  28  55 NW15      29.83R
HEBER CITY     LGT SNOW  34  32  93 CALM      29.73R
WEST JORDAN    CLOUDY    42  42 100 CALM      29.78R

$$

UTZ011>015-024>027-251500-

CENTRAL/NORTHEAST UTAH

CITY           SKY/WX    TMP DP  RH WIND       PRES   REMARKS
PROVO AIRPORT  LGT RAIN  42  38  85 NW10      29.77R
MOAB/CANYONLAN SUNNY     49  29  46 W9        29.66R
DELTA          PTSUNNY   39  36  87 N9        29.80R WCI  33
PRICE          MOSUNNY   40  29  64 N6        29.70S
ROOSEVELT      MOSUNNY   41  30  65 N7        29.71S
VERNAL         CLOUDY    42  30  62 E6        29.69R

$$

UTZ013>016-019>022-027-251500-

SOUTHERN UTAH

CITY           SKY/WX    TMP DP  RH WIND       PRES   REMARKS
BRYCE CANYON   MOSUNNY   36  26  67 NW8       29.77R WCI  30
CEDAR CITY     SUNNY     39  28  64 CALM      29.78R
MILFORD        MOSUNNY   44  33  65 N7        29.78R
ST GEORGE      CLOUDY    59  24  26 NW22G29   29.73R
HANKSVILLE     SUNNY     50  30  46 W9        29.72S
BLANDING       CLOUDY    46  30  54 W8        29.77R

$$

REGIONAL REPORTS     COLORADO/ARIZONA

CITY           SKY/WX    TMP DP  RH WIND       PRES   REMARKS
CRAIG, CO      CLOUDY    32  31  96 CALM      29.71S
GRAND JUNCTION CLOUDY    45  39  79 SW3       29.68R
RIFLE, CO      MOSUNNY   39  38  96 CALM      29.70S
MONTROSE, CO   CLOUDY    42  34  73 SE14      29.70S
CORTEZ, CO     LGT RAIN  42  35  76 N9        29.73R
COLORADO CITY    N/A     52  27  37 NW8       29.78R
PAGE, AZ       CLOUDY    57  29  34 W6        29.68R
GRAND CANYON   MOSUNNY   49  22  34 VRB5      29.77R
KINGMAN, AZ    MOSUNNY   60  20  21 N8        29.75R
FLAGSTAFF, AZ  PTSUNNY   46  30  53 SW9       29.79R

$$

REGIONAL REPORTS    NEVADA/IDAHO/WYOMING

CITY           SKY/WX    TMP DP  RH WIND       PRES   REMARKS
LAS VEGAS, NV  PTSUNNY   67  18  15 N20G26    29.74R
ELY, NY        CLOUDY    35  29  78 CALM      29.86R
ELKO, NV       CLOUDY    36  24  62 CALM      29.92R
POCATELLO, ID  CLOUDY    39  36  89 W20       29.78R WCI  29
BURLEY, ID     FLURRIES  38  33  82 W22G37    29.78R WCI  27
FORT BRIDGER,  CLOUDY    33  33 100 W9        29.75R WCI  26
EVANSTON, WY   FLURRIES  31  31 100 W7        29.72R WCI  24
ROCK SPRINGS,  CLOUDY    34  29  82 W20       29.68R WCI  23
KEMMERER, WY     N/A     30  30 100 NW3       29.72R

$$



USA.gov is the U.S. government's official web portal to all federal, state and local government web resources and services.